When you browse on this site, cookies collect data to enhance your experience and personalize the content and advertising you see.
Visit our Privacy Policy to learn more. By continuing to use the site, you agree to this use of cookies and data.
  • Em Portugal
  • Lista de países
  • Para 7 dias
  • Temperatura da água
  • Mapas de satélite
  • Mapa do tempo
  • Widgets de tempo
  • user-avatar
    Iniciar Sessão

    Previsão horária em Corcha

    Hoje, 22 Janeiro, Terça-feira

    Tempo Temperatura Precipitação Vento Pressão Humidade
    00:00 +1°C° 0 mm 2 m/s 663 mmHg 89%
    01:00 0°C° 0 mm 3 m/s 663 mmHg 90%
    02:00 0°C° 0.1 mm 3 m/s 662 mmHg 90%
    03:00 0°C° 0.1 mm 3 m/s 662 mmHg 89%
    04:00 0°C° 0.1 mm 3 m/s 662 mmHg 89%
    05:00 0°C° 0.6 mm 3 m/s 661 mmHg 90%
    06:00 0°C° 0.6 mm 3 m/s 661 mmHg 90%
    07:00 0°C° 0 mm 3 m/s 661 mmHg 90%
    08:00 +1°C° 0.4 mm 3 m/s 661 mmHg 90%
    09:00 +1°C° 0.4 mm 3 m/s 661 mmHg 90%
    10:00 +2°C° 0.4 mm 3 m/s 661 mmHg 90%
    11:00 +2°C° 0.5 mm 3 m/s 660 mmHg 90%
    12:00 +2°C° 0.5 mm 3 m/s 660 mmHg 90%
    13:00 +1°C° 0 mm 4 m/s 659 mmHg 91%
    14:00 +1°C° 1.1 mm 4 m/s 659 mmHg 92%
    15:00 +2°C° 1.1 mm 3 m/s 658 mmHg 93%
    16:00 +2°C° 1.1 mm 3 m/s 658 mmHg 94%
    17:00 +2°C° 0.9 mm 3 m/s 658 mmHg 95%
    18:00 +2°C° 0.9 mm 3 m/s 658 mmHg 96%
    19:00 +2°C° 0.9 mm 3 m/s 657 mmHg 96%
    20:00 +1°C° 0.3 mm 3 m/s 657 mmHg 97%
    21:00 +1°C° 0.3 mm 3 m/s 657 mmHg 97%
    22:00 +1°C° 0.3 mm 3 m/s 657 mmHg 98%
    23:00 +1°C° 0.1 mm 3 m/s 657 mmHg 98%

    Amanhã, 23 Janeiro, Quarta-feira

    Tempo Temperatura Precipitação Vento Pressão Humidade
    00:00 +1°C° 0.1 mm 3 m/s 657 mmHg 98%
    01:00 0°C° 0.1 mm 3 m/s 657 mmHg 98%
    02:00 0°C° 0.1 mm 3 m/s 657 mmHg 97%
    03:00 0°C° 0.1 mm 3 m/s 656 mmHg 97%
    04:00 0°C° 0.1 mm 3 m/s 656 mmHg 96%
    05:00 0°C° 0.2 mm 3 m/s 656 mmHg 96%
    06:00 +1°C° 0.2 mm 2 m/s 656 mmHg 95%
    07:00 +1°C° 0.2 mm 2 m/s 655 mmHg 95%
    08:00 +1°C° 0.5 mm 2 m/s 656 mmHg 94%
    09:00 +2°C° 0.5 mm 2 m/s 656 mmHg 94%
    10:00 +2°C° 0.5 mm 2 m/s 656 mmHg 94%
    11:00 +2°C° 0.5 mm 2 m/s 655 mmHg 92%
    12:00 +3°C° 0.5 mm 2 m/s 654 mmHg 91%
    13:00 +4°C° 0.5 mm 1 m/s 654 mmHg 90%
    14:00 +2°C° 1.4 mm 2 m/s 653 mmHg 91%
    15:00 +2°C° 1.4 mm 2 m/s 652 mmHg 92%
    16:00 +2°C° 1.4 mm 2 m/s 652 mmHg 93%
    17:00 +2°C° 2.4 mm 2 m/s 652 mmHg 93%
    18:00 +2°C° 2.4 mm 1 m/s 651 mmHg 93%
    19:00 +2°C° 2.4 mm 1 m/s 651 mmHg 93%
    20:00 +2°C° 1.6 mm 1 m/s 651 mmHg 93%
    21:00 +2°C° 1.6 mm 1 m/s 650 mmHg 93%
    22:00 +2°C° 1.6 mm 1 m/s 650 mmHg 93%
    23:00 +2°C° 1.9 mm 1 m/s 649 mmHg 94%

    Depois de amanhã, 24 Janeiro, Quinta-feira

    Tempo Temperatura Precipitação Vento Pressão Humidade
    00:00 +2°C° 1.9 mm 1 m/s 649 mmHg 94%
    01:00 +2°C° 1.9 mm 1 m/s 649 mmHg 94%
    02:00 +2°C° 1.1 mm 1 m/s 648 mmHg 95%
    03:00 +2°C° 1.1 mm 1 m/s 648 mmHg 95%
    04:00 +2°C° 1.1 mm 1 m/s 647 mmHg 95%
    05:00 +2°C° 0.7 mm 1 m/s 647 mmHg 95%
    06:00 +2°C° 0.7 mm 1 m/s 647 mmHg 96%
    07:00 +2°C° 0.7 mm 1 m/s 647 mmHg 96%
    08:00 +2°C° 0.8 mm 1 m/s 647 mmHg 96%
    09:00 +2°C° 0.8 mm 1 m/s 647 mmHg 97%
    10:00 +1°C° 0.8 mm 2 m/s 648 mmHg 97%
    11:00 +1°C° 0.2 mm 2 m/s 647 mmHg 95%
    12:00 +1°C° 0.2 mm 2 m/s 647 mmHg 94%
    13:00 +2°C° 0.2 mm 2 m/s 647 mmHg 92%
    14:00 +2°C° 0 mm 2 m/s 647 mmHg 92%
    15:00 +1°C° 0 mm 2 m/s 648 mmHg 91%
    16:00 +1°C° 0 mm 2 m/s 648 mmHg 91%
    17:00 -1°C° 0 mm 2 m/s 647 mmHg 91%
    18:00 -2°C° 0 mm 2 m/s 647 mmHg 91%
    19:00 -3°C° 0 mm 2 m/s 647 mmHg 91%
    20:00 -3°C° 0 mm 2 m/s 647 mmHg 88%
    21:00 -4°C° 0 mm 2 m/s 647 mmHg 86%
    22:00 -4°C° 0 mm 2 m/s 646 mmHg 83%
    23:00 -3°C° 1.1 mm 2 m/s 647 mmHg 86%

    25 Janeiro, Sexta-feira

    Tempo Temperatura Precipitação Vento Pressão Humidade
    00:00 -3°C° 1.1 mm 2 m/s 647 mmHg 89%
    01:00 -2°C° 1.1 mm 2 m/s 647 mmHg 92%
    02:00 -2°C° 0.2 mm 2 m/s 647 mmHg 92%
    03:00 -2°C° 0.1 mm 2 m/s 647 mmHg 92%
    04:00 -3°C° 0.1 mm 2 m/s 647 mmHg 92%
    05:00 -3°C° 0 mm 2 m/s 647 mmHg 92%
    06:00 -4°C° 0 mm 2 m/s 647 mmHg 92%
    07:00 -4°C° 0 mm 2 m/s 647 mmHg 91%
    08:00 -3°C° 0 mm 2 m/s 647 mmHg 92%
    09:00 -2°C° 0 mm 2 m/s 648 mmHg 92%
    10:00 +1°C° 0 mm 2 m/s 648 mmHg 92%
    11:00 +1°C° 0.1 mm 2 m/s 648 mmHg 91%
    12:00 +2°C° 0.1 mm 2 m/s 648 mmHg 90%
    13:00 +2°C° 0.1 mm 2 m/s 648 mmHg 89%
    14:00 +2°C° 0.2 mm 2 m/s 647 mmHg 90%
    15:00 +1°C° 0.2 mm 2 m/s 647 mmHg 91%
    16:00 +1°C° 0.2 mm 2 m/s 647 mmHg 91%
    17:00 -1°C° 0.2 mm 2 m/s 647 mmHg 91%
    18:00 -1°C° 0.2 mm 2 m/s 647 mmHg 91%
    19:00 -2°C° 0.2 mm 2 m/s 647 mmHg 91%
    20:00 -2°C° 0.1 mm 2 m/s 647 mmHg 91%
    21:00 -2°C° 0.1 mm 2 m/s 648 mmHg 91%
    22:00 -3°C° 0.1 mm 2 m/s 648 mmHg 91%
    23:00 -3°C° 0 mm 2 m/s 648 mmHg 91%

    26 Janeiro, Sábado

    Tempo Temperatura Precipitação Vento Pressão Humidade
    00:00 -4°C° 0 mm 2 m/s 648 mmHg 91%
    01:00 -5°C° 0 mm 2 m/s 648 mmHg 90%
    02:00 -5°C° 0 mm 2 m/s 648 mmHg 90%
    03:00 -5°C° 0 mm 2 m/s 648 mmHg 89%
    04:00 -5°C° 0 mm 2 m/s 648 mmHg 89%
    05:00 -5°C° 0 mm 2 m/s 648 mmHg 88%
    06:00 -5°C° 0 mm 2 m/s 649 mmHg 88%
    07:00 -5°C° 0 mm 2 m/s 649 mmHg 88%
    08:00 -4°C° 0 mm 2 m/s 650 mmHg 86%
    09:00 -2°C° 0 mm 2 m/s 651 mmHg 85%
    10:00 +1°C° 0 mm 1 m/s 651 mmHg 84%
    11:00 +2°C° 0 mm 1 m/s 652 mmHg 84%
    12:00 +2°C° 0 mm 1 m/s 652 mmHg 84%
    13:00 +3°C° 0 mm 1 m/s 652 mmHg 84%
    14:00 +2°C° 0 mm 1 m/s 652 mmHg 85%
    15:00 +2°C° 0 mm 1 m/s 652 mmHg 86%
    16:00 +2°C° 0 mm 1 m/s 652 mmHg 87%
    17:00 +1°C° 0 mm 1 m/s 653 mmHg 88%
    18:00 0°C° 0 mm 1 m/s 653 mmHg 88%
    19:00 0°C° 0 mm 1 m/s 653 mmHg 89%
    20:00 0°C° 0.1 mm 1 m/s 653 mmHg 89%
    21:00 -1°C° 0.1 mm 1 m/s 653 mmHg 89%
    22:00 -1°C° 0.1 mm 1 m/s 654 mmHg 89%
    23:00 -1°C° 0.2 mm 1 m/s 654 mmHg 89%

    27 Janeiro, Domingo

    Tempo Temperatura Precipitação Vento Pressão Humidade
    00:00 -1°C° 0.2 mm 1 m/s 654 mmHg 90%
    01:00 -1°C° 0.2 mm 1 m/s 654 mmHg 90%
    02:00 -1°C° 0.1 mm 1 m/s 654 mmHg 90%
    03:00 -1°C° 0.1 mm 1 m/s 653 mmHg 90%
    04:00 -1°C° 0.1 mm 1 m/s 653 mmHg 89%
    05:00 -2°C° 0 mm 1 m/s 653 mmHg 89%
    06:00 -2°C° 0 mm 1 m/s 653 mmHg 88%
    07:00 -3°C° 0 mm 1 m/s 653 mmHg 87%
    08:00 -1°C° 0 mm 1 m/s 654 mmHg 85%
    09:00 0°C° 0 mm 1 m/s 655 mmHg 83%
    10:00 +2°C° 0 mm 1 m/s 655 mmHg 81%
    11:00 +2°C° 0 mm 1 m/s 655 mmHg 82%
    12:00 +2°C° 0 mm 0 m/s 655 mmHg 82%
    13:00 +2°C° 0 mm 0 m/s 655 mmHg 83%
    14:00 +2°C° 0.1 mm 0 m/s 655 mmHg 85%
    15:00 +2°C° 0.1 mm 0 m/s 655 mmHg 86%
    16:00 +1°C° 0.1 mm 0 m/s 655 mmHg 88%
    17:00 +1°C° 0.1 mm 0 m/s 656 mmHg 89%
    18:00 0°C° 0.1 mm 0 m/s 656 mmHg 90%
    19:00 -1°C° 0.1 mm 0 m/s 656 mmHg 92%
    20:00 -1°C° 0.1 mm 0 m/s 656 mmHg 92%
    21:00 -1°C° 0.1 mm 0 m/s 656 mmHg 92%
    22:00 -1°C° 0.1 mm 0 m/s 657 mmHg 93%
    23:00 -1°C° 0 mm 1 m/s 657 mmHg 93%
    Mostrar mais